[[{"header":{"parameterUnit":"m.s-1","parameterCategory":1,"la1":30.2991,"la2":30.254,"lo1":-89.0895,"lo2":-89.0444,"dy":0.0017,"dx":0.0017,"nx":28,"ny":28,"refTime":"2025-12-17T03:00:00:Z","depth":0,"parameterNumber":2,"parameterNumberName":"U-component_of_WINDS"},"data":[0,0,0,0,0,0,0,0,0,0,0,0,0,0,0,0,0,0,0,0,0,0,0,0,0,0,0,0,0,0,0,0,0,0,0,0,0,0,0,0,0,0,0,0,0,0,0,0,0,0,0,0,0,0,0,0,0,0,-2.9677,-2.9677,0,-2.9669,-2.9669,-2.9668,-2.9552,-2.9549,-2.9546,-2.9543,-2.9539,-2.9542,-2.9544,0,0,0,0,0,0,0,0,0,0,0,0,0,-2.9598,-2.96,-2.9677,-2.9677,-2.9677,-2.9669,-2.9669,-2.9668,-2.9552,-2.9549,-2.9545,-2.9542,-2.9538,-2.9541,-2.9545,0,0,0,0,0,0,0,0,0,0,0,0,0,-2.9616,-2.9601,-2.9677,-2.9618,-2.9612,-2.9669,-2.9669,-2.9668,-2.9553,-2.9549,-2.9544,-2.954,-2.9537,-2.9541,-2.9545,-2.9659,0,0,-2.9557,-2.9559,0,0,0,0,0,0,0,0,-2.9615,-2.9619,-2.9627,-2.9622,-2.9616,-2.9607,-2.9639,-2.9665,-2.9554,-2.9576,-2.9543,-2.9538,-2.9565,-2.9567,-2.9575,-2.9659,-2.9658,-2.9558,-2.956,-2.9562,-2.9563,0,0,0,0,0,0,0,-2.9614,-2.9619,-2.9674,-2.9627,-2.962,-2.9594,-2.9591,-2.9644,-2.9596,-2.9573,-2.9565,-2.9565,-2.9562,-2.9572,-2.9574,-2.9658,-2.9557,-2.9561,-2.9563,-2.9565,-2.9839,-2.9844,0,0,0,0,0,0,-2.962,-2.9618,-2.9674,-2.9673,-2.9604,-2.9599,-2.9596,-2.9614,-2.9595,-2.9588,-2.9569,-2.956,-2.9567,-2.957,-2.9574,-2.9708,-2.9562,-2.9565,-2.9568,-2.9834,-2.984,-2.9845,0,0,0,0,0,0,-2.9619,-2.9626,-2.9674,-2.9644,-2.9648,-2.9605,-2.9626,-2.9616,-2.9626,-2.9592,-2.9583,-2.9588,-2.9564,-2.9568,-2.9639,-2.9706,-2.9567,-2.9571,-2.9828,-2.9836,-2.9843,-2.9976,0,0,0,0,0,0,-2.9617,-2.9626,-2.9668,-2.9645,-2.965,-2.9738,-2.963,-2.9619,-2.9633,-2.9621,-2.9607,-2.96,-2.956,-2.9634,-2.9643,-2.9709,-2.9574,-2.9822,-2.9832,-2.984,-2.9966,-2.9987,-3.0006,0,0,0,0,0,-2.9615,-2.9706,-2.967,-2.9678,-2.97,-2.9742,-2.9745,-2.9696,-2.9638,-2.9681,-2.9659,-2.9601,-2.9697,-2.9642,-2.9651,-2.972,-2.9818,-2.9829,-2.984,-2.9957,-2.9983,-3.0005,0,0,0,0,0,0,-2.9737,-2.9702,-2.9662,-2.9748,-2.9749,-2.9722,-2.9774,-2.9725,-2.9743,-2.9731,-2.9672,-2.967,-2.9751,-2.9742,-2.9681,-2.9831,-2.9747,-2.9761,-2.9833,-2.9858,-2.9878,-2.9879,-2.9577,0,0,0,0,0,-2.9775,-2.981,-2.9777,-2.9857,-2.9859,-2.9817,-2.9834,-2.9796,-2.9795,-2.9796,-2.9779,-2.9782,-2.9813,-2.9835,-2.9862,-2.9964,-2.9961,-3.0016,-3.0036,-3.0053,-3.0065,-3.0122,-3.0147,-2.9881,-2.9881,-2.9881,0,0,-2.9851,-2.9836,-2.9862,-2.9881,-2.9877,-2.9918,-2.9818,-2.9864,-2.9895,-2.9803,-2.9869,-2.9858,-2.9857,-2.9946,-2.9984,-2.9941,-3.0138,-3.0067,-3.008,-3.0084,-3.0136,-3.0161,-3.0184,-2.9889,-2.9887,-2.9886,0,0,-3.0012,-3.0004,-3.007,-3.0069,-3.0065,-3.0036,-3.0053,-3.0034,-3.0023,-3.0088,-3.0021,-3.0058,-3.0112,-3.0115,-3.0124,-3.0291,-3.0239,-3.0301,-3.0406,-3.0462,-3.0483,-3.0502,-3.0564,-3.0586,-3.0314,-3.0314,-3.0314,0,-3.0109,-3.0165,-3.0111,-3.0162,-3.0174,-3.0092,-3.0161,-3.0163,-3.0169,-3.018,-3.0131,-3.02,-3.0194,-3.0283,-3.0324,-3.0333,-3.0352,-3.0303,-3.0484,-3.0502,-3.0519,-3.0577,-3.06,-3.0322,-3.0321,-3.032,-3.032,0,-3.0286,-3.0327,-3.0381,-3.0388,-3.0406,-3.0466,-3.0422,-3.0447,-3.041,-3.0388,-3.0457,-3.0447,-3.0472,-3.049,-3.0454,-3.0576,-3.055,-3.0494,-3.0409,-3.0553,-3.0607,-3.0628,-3.0333,-3.033,-3.0328,-3.0326,0,0,-3.0522,-3.05,-3.0521,-3.0525,-3.0516,-3.0547,-3.0605,-3.0628,-3.0652,-3.066,-3.0709,-3.0758,-3.0707,-3.0718,-3.0681,-3.0731,-3.0867,-3.0669,-3.0668,-3.0708,-3.1005,-3.1048,-3.1074,-3.0832,-3.0836,-3.0839,-3.1005,0,-3.0679,-3.0774,-3.0729,-3.0831,-3.087,-3.0794,-3.0845,-3.0847,-3.0829,-3.0861,-3.0841,-3.0878,-3.0807,-3.0814,-3.0859,-3.0841,-3.0926,-3.0828,-3.088,-3.0882,-3.0883,-3.1102,-3.1147,-3.1303,-3.1026,-3.1029,-3.1032,0,-3.0874,-3.089,-3.0996,-3.0983,-3.0997,-3.1044,-3.1063,-3.1094,-3.1096,-3.1079,-3.1093,-3.1046,-3.1105,-3.1021,-3.1103,-3.1037,-3.1056,-3.1051,-3.1056,-3.106,-3.0966,-3.1113,-3.1352,-3.1377,-3.1064,-3.1062,-3.1059,0,-3.1039,-3.1087,-3.1157,-3.1162,-3.1148,-3.1183,-3.1179,-3.1176,-3.1194,-3.1212,-3.1224,-3.1249,-3.1263,-3.1285,-3.1248,-3.1189,-3.1337,-3.1248,-3.1327,-3.1328,-3.1361,-3.136,-3.1608,-3.1372,-3.1372,-3.1371,-3.1371,0,-3.1219,-3.1288,-3.1231,-3.1274,-3.135,-3.1298,-3.1375,-3.1363,-3.1362,-3.1404,-3.1341,-3.1382,-3.1329,-3.1367,-3.1338,-3.1412,-3.1419,-3.1409,-3.1401,-3.1416,-3.1417,-3.1428,-3.1416,-3.1377,-3.1376,-3.1375,-3.1374,0,-3.1415,-3.138,-3.1452,-3.1433,-3.143,-3.1487,-3.1472,-3.1513,-3.1492,-3.1546,-3.1556,-3.1523,-3.1563,-3.1528,-3.1567,-3.1548,-3.1648,-3.1623,-3.1647,-3.1641,-3.1722,-3.1716,-3.1987,-3.2021,-3.1762,-3.1764,-3.1766,0,-3.1533,-3.1584,-3.1572,-3.1595,-3.1595,-3.1632,-3.1651,-3.1603,-3.1625,-3.1633,-3.1674,-3.171,-3.1735,-3.1805,-3.1785,-3.1816,-3.1793,-3.1886,-3.1797,-3.1812,-3.1797,-3.1795,-3.1802,-3.1905,-3.1908,-3.191,-3.1912,0,-3.1747,-3.1728,-3.1756,-3.178,-3.1803,-3.182,-3.1831,-3.1854,-3.1806,-3.1835,-3.1875,-3.1895,-3.1936,-3.1973,-3.1998,-3.1996,-3.1948,-3.194,-3.1961,-3.1976,-3.1989,-3.1986,-3.1698,-3.1934,-3.1932,-3.1931,-3.1929,-3.1928,-3.1909,-3.1952,-3.1951,-3.1985,-3.1989,-3.2002,-3.2041,-3.2024,-3.2057,-3.2085,-3.2056,-3.2106,-3.2111,-3.2139,-3.2144,-3.2185,-3.2146,-3.2175,-3.2182,-3.2191,-3.2203,-3.1982,-3.2189,-3.2188,-3.2187,-3.2187,-3.2186,0,-3.2121,-3.2117,-3.215,-3.2168,-3.2197,-3.2147,-3.2158,-3.2186,-3.223,-3.2238,-3.2265,-3.2314,-3.235,-3.2335,-3.2368,-3.2404,-3.2383,-3.2414,-3.2412,-3.2413,-3.2235,-3.2215,-3.2431,-3.2431,-3.2431,-3.2431,-3.2431,-3.2431,-3.2235,-3.2306,-3.2287,-3.2361,-3.2357,-3.2405,-3.2416,-3.2429,-3.2435,-3.2492,-3.2522,-3.2511,-3.2511,-3.2544,-3.2576,-3.2571,-3.2587,-3.2628,-3.2615,-3.2449,-3.2425,-3.2402,-3.2383,-3.2631,-3.2631,-3.279,-3.2791,-3.2793]},{"header":{"parameterUnit":"m.s-1","parameterCategory":1,"la1":30.2991,"la2":30.254,"lo1":-89.0895,"lo2":-89.0444,"dy":0.0017,"dx":0.0017,"nx":28,"ny":28,"refTime":"2025-12-17T03:00:00:Z","depth":0,"parameterNumber":3,"parameterNumberName":"V-component_of_WINDS"},"data":[0,0,0,0,0,0,0,0,0,0,0,0,0,0,0,0,0,0,0,0,0,0,0,0,0,0,0,0,0,0,0,0,0,0,0,0,0,0,0,0,0,0,0,0,0,0,0,0,0,0,0,0,0,0,0,0,0,0,0.8863,0.8863,0,0.8852,0.8852,0.8851,0.8905,0.8907,0.8909,0.891,0.8894,0.8892,0.889,0,0,0,0,0,0,0,0,0,0,0,0,0,0.8928,0.8927,0.8863,0.8863,0.8863,0.8852,0.8852,0.8851,0.8905,0.8907,0.8909,0.8911,0.8894,0.8892,0.889,0,0,0,0,0,0,0,0,0,0,0,0,0,0.8907,0.8927,0.8863,0.8889,0.8891,0.8852,0.8852,0.8851,0.8905,0.8907,0.8909,0.8912,0.8895,0.8892,0.8889,0.8824,0,0,0.8881,0.8879,0,0,0,0,0,0,0,0,0.8908,0.8904,0.8885,0.8887,0.8889,0.8883,0.8869,0.8842,0.8904,0.8899,0.891,0.8913,0.8888,0.8886,0.8878,0.8823,0.8823,0.888,0.8879,0.8877,0.8876,0,0,0,0,0,0,0,0.8909,0.8905,0.8859,0.8885,0.8887,0.8899,0.8899,0.8864,0.888,0.89,0.8904,0.8902,0.8889,0.8881,0.8878,0.8822,0.888,0.8878,0.8876,0.8875,0.8713,0.8711,0,0,0,0,0,0,0.8908,0.8906,0.8859,0.8858,0.8905,0.8896,0.8896,0.8882,0.8881,0.8883,0.89,0.8904,0.8884,0.8881,0.8878,0.88,0.8877,0.8875,0.8873,0.8716,0.8712,0.871,0,0,0,0,0,0,0.8909,0.8903,0.8859,0.8883,0.8879,0.8893,0.8877,0.8881,0.8872,0.8881,0.8884,0.8888,0.8886,0.8882,0.8837,0.8801,0.8873,0.8871,0.8719,0.8715,0.8711,0.8646,0,0,0,0,0,0,0.8911,0.8903,0.8879,0.8882,0.8877,0.882,0.8875,0.8879,0.8868,0.8874,0.8871,0.8872,0.8888,0.8841,0.8834,0.8798,0.8868,0.8722,0.8717,0.8712,0.8651,0.864,0.8631,0,0,0,0,0,0.8913,0.8861,0.8878,0.8872,0.8848,0.8818,0.8815,0.8835,0.8865,0.884,0.8846,0.8872,0.8806,0.8836,0.8829,0.8791,0.8724,0.8718,0.8713,0.8656,0.8642,0.8631,0,0,0,0,0,0,0.8851,0.8861,0.8881,0.8828,0.8822,0.8827,0.8797,0.882,0.8804,0.881,0.8834,0.8833,0.8784,0.8783,0.8816,0.8728,0.877,0.8763,0.8729,0.8717,0.8707,0.8707,0.8866,0,0,0,0,0,0.8832,0.8808,0.8818,0.877,0.8767,0.8782,0.877,0.8786,0.878,0.8777,0.8779,0.8771,0.8749,0.8733,0.8713,0.8652,0.8652,0.8623,0.8612,0.8604,0.8596,0.8563,0.855,0.8691,0.8691,0.8691,0,0,0.8791,0.8794,0.8777,0.8758,0.8755,0.8729,0.8779,0.8749,0.8729,0.8772,0.873,0.8732,0.8724,0.8671,0.8648,0.8669,0.8558,0.8597,0.859,0.8587,0.8556,0.8543,0.8531,0.8687,0.8687,0.8688,0,0,0.8703,0.8703,0.8663,0.866,0.8655,0.8666,0.8657,0.8659,0.8662,0.8621,0.8652,0.8628,0.8589,0.8582,0.8574,0.8484,0.8507,0.8477,0.8422,0.839,0.8379,0.8369,0.8335,0.8323,0.847,0.8469,0.8469,0,0.8651,0.8614,0.8639,0.8607,0.8598,0.8637,0.8596,0.8591,0.858,0.8571,0.8596,0.8548,0.8546,0.8491,0.847,0.8462,0.8451,0.8476,0.8379,0.8369,0.836,0.8329,0.8316,0.8466,0.8466,0.8466,0.8467,0,0.8551,0.8525,0.8493,0.8483,0.847,0.8433,0.8452,0.8435,0.8453,0.8461,0.8418,0.8417,0.8397,0.8386,0.8402,0.8334,0.8347,0.8375,0.8417,0.8343,0.8313,0.8301,0.846,0.8461,0.8463,0.8463,0,0,0.8422,0.8427,0.8414,0.841,0.8409,0.8388,0.8353,0.8336,0.832,0.8312,0.8282,0.8249,0.8274,0.8265,0.8281,0.8253,0.818,0.8284,0.8284,0.8263,0.8103,0.808,0.8066,0.8197,0.8195,0.8193,0.8103,0,0.8334,0.8276,0.8298,0.8238,0.8213,0.8251,0.822,0.8215,0.8222,0.8201,0.8208,0.8184,0.8221,0.8215,0.8189,0.8194,0.8148,0.8201,0.8167,0.8166,0.8166,0.8051,0.8027,0.7942,0.8092,0.809,0.8088,0,0.8223,0.8212,0.8149,0.8152,0.8143,0.8115,0.81,0.8081,0.8076,0.8082,0.8072,0.8094,0.8059,0.8104,0.8055,0.8091,0.8079,0.8079,0.8076,0.8072,0.8121,0.8042,0.7916,0.7902,0.8071,0.8072,0.8074,0,0.8133,0.8102,0.806,0.8056,0.8059,0.8038,0.8038,0.8036,0.8024,0.8011,0.8003,0.7985,0.7975,0.796,0.7977,0.8008,0.7925,0.7971,0.7928,0.7927,0.7907,0.7907,0.7775,0.7902,0.7902,0.7902,0.7903,0,0.8032,0.7992,0.802,0.7994,0.795,0.7976,0.7931,0.7935,0.7933,0.7907,0.7939,0.7914,0.7939,0.7916,0.7929,0.7885,0.7881,0.7884,0.7888,0.788,0.788,0.7871,0.7876,0.7899,0.79,0.7901,0.7901,0,0.7923,0.794,0.7897,0.7904,0.7905,0.7872,0.7878,0.7853,0.7863,0.7831,0.7825,0.7839,0.7814,0.783,0.7804,0.7813,0.7756,0.7768,0.7757,0.776,0.7715,0.7718,0.7571,0.7552,0.7693,0.7692,0.7691,0,0.7856,0.7826,0.7831,0.7817,0.7815,0.7792,0.778,0.7805,0.7791,0.7783,0.7759,0.7738,0.7721,0.7679,0.7686,0.7666,0.7677,0.7627,0.7674,0.7668,0.7675,0.7675,0.7672,0.7617,0.7615,0.7614,0.7613,0,0.7735,0.7746,0.7728,0.7713,0.7699,0.7688,0.768,0.7666,0.7691,0.7673,0.7649,0.7636,0.7611,0.7588,0.7571,0.757,0.7594,0.7598,0.7587,0.7578,0.7572,0.7573,0.7729,0.7601,0.7602,0.7603,0.7604,0.7604,0.7644,0.7619,0.7618,0.7598,0.7595,0.7586,0.7564,0.7572,0.7552,0.7534,0.7549,0.752,0.7515,0.7496,0.7492,0.7468,0.7488,0.7472,0.7468,0.7463,0.7456,0.7578,0.7465,0.7466,0.7466,0.7466,0.7467,0,0.7523,0.7525,0.7506,0.7494,0.7478,0.7505,0.7497,0.7481,0.7455,0.745,0.7434,0.7405,0.7383,0.739,0.737,0.7349,0.736,0.7343,0.7344,0.7343,0.744,0.7451,0.7335,0.7335,0.7335,0.7335,0.7335,0.7335,0.7458,0.7417,0.7428,0.7385,0.7387,0.736,0.7353,0.7345,0.7341,0.7308,0.7291,0.7296,0.7295,0.7275,0.7256,0.7258,0.7249,0.7227,0.7233,0.7323,0.7336,0.7348,0.7359,0.7225,0.7225,0.7138,0.7137,0.7136]}]]